GW4718 Weather Reports


time (UTC)temp
C
wind
direction
speed
KPH
gust
KPH
rain 1hr
cm
rain 24hr
cm
rain mn
cm
humidity
%
barometer
mb
20260510234658 13 210 0.0 0.0 0.00 0.00 0.00 98 1019.0
20260510234156 13 92 0.0 0.0 0.00 0.00 0.00 98 1018.9
20260510233652 14 105 1.6 3.2 0.00 0.00 0.00 98 1018.7
20260510233149 14 149 0.0 1.6 0.00 0.00 0.00 98 1018.7
20260510232645 14 195 0.0 3.2 0.00 0.00 0.00 97 1018.7
20260510232140 14 232 1.6 3.2 0.00 0.00 0.00 97 1018.6
20260510231638 15 221 1.6 1.6 0.00 0.00 0.00 96 1018.5
20260510231135 14 64 0.0 1.6 0.00 0.00 0.00 97 1018.6
20260510230631 14 343 0.0 0.0 0.00 0.00 0.00 97 1018.7
20260510230127 14 320 0.0 0.0 0.00 0.00 0.00 97 1018.9
20260510225623 14 276 0.0 1.6 0.00 0.00 0.00 97 1018.6
20260510225119 14 47 3.2 4.8 0.00 0.00 0.00 96 1018.7
20260510224615 14 253 1.6 3.2 0.00 0.00 0.00 96 1018.8
20260510224112 14 268 3.2 4.8 0.00 0.00 0.00 95 1018.8
20260510223610 14 47 4.8 11.3 0.00 0.00 0.00 94 1018.8
20260510223107 14 280 1.6 3.2 0.00 0.00 0.00 92 1018.7
20260510222603 15 74 3.2 4.8 0.00 0.00 0.00 90 1018.5
20260510222101 15 125 3.2 9.7 0.00 0.00 0.00 87 1018.6
20260510221601 15 170 1.6 6.4 0.00 0.00 0.00 90 1018.6
20260510221058 15 262 3.2 9.7 0.00 0.00 0.00 92 1018.7
20260510220554 15 230 4.8 4.8 0.00 0.00 0.00 93 1018.3
20260510220050 15 261 1.6 3.2 0.00 0.00 0.00 94 1018.3
20260510215548 15 40 0.0 4.8 0.00 0.00 0.00 93 1018.0
20260510215046 15 247 3.2 4.8 0.00 0.00 0.00 90 1018.0
20260510214543 16 198 3.2 11.3 0.00 0.00 0.00 89 1018.1
20260510214039 17 220 4.8 9.7 0.00 0.00 0.00 83 1017.8
20260510213536 17 52 0.0 1.6 0.00 0.00 0.00 83 1017.6
20260510213032 17 77 0.0 1.6 0.00 0.00 0.00 79 1017.6
20260510212529 18 226 1.6 9.7 0.00 0.00 0.00 74 1017.7
20260510212026 18 214 6.4 9.7 0.00 0.00 0.00 72 1017.4
20260510211523 18 185 3.2 6.4 0.00 0.00 0.00 71 1017.2
20260510211017 18 303 4.8 9.7 0.00 0.00 0.00 70 1017.1
20260510210514 19 251 6.4 12.9 0.00 0.00 0.00 69 1017.2
20260510210014 20 248 6.4 12.9 0.00 0.00 0.00 69 1016.9
20260510205508 19 219 3.2 9.7 0.00 0.00 0.00 70 1017.0
20260510205004 20 207 9.7 14.5 0.00 0.00 0.00 65 1017.2
20260510204501 20 218 4.8 12.9 0.00 0.00 0.00 67 1017.2
20260510203957 19 233 9.7 12.9 0.00 0.00 0.00 68 1017.2
20260510203455 18 225 4.8 11.3 0.00 0.00 0.00 70 1017.2
20260510202955 18 208 4.8 9.7 0.00 0.00 0.00 74 1017.2
20260510202450 17 222 1.6 6.4 0.00 0.00 0.00 74 1017.2
20260510201947 17 9 0.0 4.8 0.00 0.00 0.00 75 1017.3
20260510201445 17 160 4.8 12.9 0.00 0.00 0.00 78 1017.3
20260510200941 19 225 8.0 11.3 0.00 0.00 0.00 67 1017.5
20260510200437 20 122 4.8 9.7 0.00 0.00 0.00 64 1017.3
20260510195935 20 55 3.2 3.2 0.00 0.00 0.00 62 1017.1
20260510195433 21 275 3.2 4.8 0.00 0.00 0.00 58 1016.9
20260510194928 22 295 3.2 6.4 0.00 0.00 0.00 55 1017.0
20260510194424 21 255 8.0 11.3 0.00 0.00 0.00 54 1017.1
20260510193920 20 219 6.4 6.4 0.00 0.00 0.00 55 1017.1
20260510193415 20 188 0.0 4.8 0.00 0.00 0.00 59 1016.9
20260510192912 20 207 8.0 12.9 0.00 0.00 0.00 55 1016.7
20260510192406 21 202 4.8 11.3 0.00 0.00 0.00 56 1016.3
20260510191903 21 216 9.7 14.5 0.00 0.00 0.00 55 1016.3
20260510191359 22 140 14.5 17.7 0.00 0.00 0.00 53 1016.7
20260510190856 21 154 6.4 11.3 0.00 0.00 0.00 57 1016.7
20260510190354 21 173 6.4 14.5 0.00 0.00 0.00 52 1016.8
20260510185850 21 234 8.0 12.9 0.00 0.00 0.00 51 1016.7
20260510185348 21 162 9.7 11.3 0.00 0.00 0.00 54 1016.5
20260510184845 21 182 4.8 12.9 0.00 0.00 0.00 58 1017.0
20260510184342 20 230 3.2 11.3 0.00 0.00 0.00 67 1017.1
20260510183841 20 235 6.4 6.4 0.00 0.00 0.00 56 1017.2
20260510183338 21 195 4.8 11.3 0.00 0.00 0.00 55 1017.1
20260510182833 21 131 3.2 14.5 0.00 0.00 0.00 47 1017.0
20260510182330 21 255 3.2 11.3 0.00 0.00 0.00 47 1016.5
20260510181826 21 162 1.6 3.2 0.00 0.00 0.00 47 1016.8
20260510181323 22 237 14.5 17.7 0.00 0.00 0.00 47 1016.5
20260510180819 22 238 9.7 17.7 0.00 0.00 0.00 46 1016.8
20260510180316 22 168 9.7 17.7 0.00 0.00 0.00 44 1016.7
20260510175813 22 261 9.7 17.7 0.00 0.00 0.00 43 1016.3
20260510175309 22 152 8.0 9.7 0.00 0.00 0.00 44 1016.5
20260510174806 22 84 3.2 14.5 0.00 0.00 0.00 44 1016.7
20260510174303 22 268 6.4 14.5 0.00 0.00 0.00 44 1016.7
20260510173759 22 196 8.0 14.5 0.00 0.00 0.00 43 1016.4
20260510173255 23 221 9.7 22.5 0.00 0.00 0.00 41 1016.8
20260510172750 23 191 17.7 33.8 0.00 0.00 0.00 39 1016.2
20260510172247 23 233 6.4 24.1 0.00 0.00 0.00 40 1016.0
20260510171744 23 195 6.4 6.4 0.00 0.00 0.00 41 1016.4
20260510171241 24 162 6.4 6.4 0.00 0.00 0.00 41 1016.1
20260510170738 23 196 11.3 22.5 0.00 0.00 0.00 44 1016.4
20260510170234 24 282 6.4 11.3 0.00 0.00 0.00 40 1016.3
20260510165730 23 201 9.7 20.9 0.00 0.00 0.00 41 1016.4
20260510165226 23 221 11.3 22.5 0.00 0.00 0.00 43 1016.8
20260510164723 22 163 12.9 22.5 0.00 0.00 0.00 40 1016.8
20260510164221 22 244 9.7 20.9 0.00 0.00 0.00 42 1016.8
20260510163716 23 208 12.9 20.9 0.00 0.00 0.00 41 1016.8
20260510163212 22 36 1.6 11.3 0.00 0.00 0.00 43 1017.0
20260510162711 23 249 6.4 17.7 0.00 0.00 0.00 42 1017.0
20260510162209 23 280 3.2 17.7 0.00 0.00 0.00 41 1016.8
20260510161704 22 242 3.2 14.5 0.00 0.00 0.00 43 1017.0
20260510161201 22 233 14.5 17.7 0.00 0.00 0.00 41 1017.1
20260510160658 22 233 9.7 27.4 0.00 0.00 0.00 42 1017.1
20260510160153 22 194 6.4 14.5 0.00 0.00 0.00 42 1017.0
20260510155649 22 175 17.7 20.9 0.00 0.00 0.00 42 1017.0
20260510155145 22 204 4.8 20.9 0.00 0.00 0.00 46 1017.3
20260510154641 22 204 14.5 16.1 0.00 0.00 0.00 45 1017.3
20260510154137 22 243 11.3 17.7 0.00 0.00 0.00 46 1017.2
20260510153632 22 103 9.7 12.9 0.00 0.00 0.00 45 1017.5
20260510153129 22 246 3.2 17.7 0.00 0.00 0.00 48 1017.4
20260510152626 22 176 4.8 9.7 0.00 0.00 0.00 45 1017.2
20260510152122 22 192 9.7 16.1 0.00 0.00 0.00 50 1017.4
20260510151619 21 145 14.5 20.9 0.00 0.00 0.00 45 1017.2
20260510151117 21 168 1.6 6.4 0.00 0.00 0.00 50 1017.3
20260510150617 21 153 6.4 14.5 0.00 0.00 0.00 53 1017.4
20260510150113 20 213 4.8 11.3 0.00 0.00 0.00 51 1017.0
20260510145609 20 239 4.8 11.3 0.00 0.00 0.00 53 1017.2
20260510145106 21 114 8.0 14.5 0.00 0.00 0.00 50 1017.1
20260510144602 21 243 6.4 11.3 0.00 0.00 0.00 51 1017.0
20260510144058 20 139 6.4 9.7 0.00 0.00 0.00 52 1017.0
20260510143554 20 262 12.9 22.5 0.00 0.00 0.00 52 1017.3
20260510143050 20 252 12.9 17.7 0.00 0.00 0.00 57 1017.1
20260510142547 20 82 4.8 4.8 0.00 0.00 0.00 58 1017.4
20260510142044 20 232 1.6 20.9 0.00 0.00 0.00 58 1017.3
20260510141541 20 196 6.4 12.9 0.00 0.00 0.00 59 1017.4
20260510141039 20 144 6.4 20.9 0.00 0.00 0.00 57 1017.4
20260510140535 20 155 1.6 12.9 0.00 0.00 0.00 60 1017.2
20260510140034 18 79 3.2 6.4 0.00 0.00 0.00 60 1017.3
20260510135530 16 148 16.1 24.1 0.00 0.00 0.00 67 1017.2
20260510135026 16 70 3.2 6.4 0.00 0.00 0.00 78 1017.4
20260510134524 15 32 1.6 4.8 0.00 0.00 0.00 79 1017.5
20260510134021 14 275 0.0 3.2 0.00 0.00 0.00 80 1017.6
20260510133516 14 322 1.6 1.6 0.00 0.00 0.00 82 1017.6
20260510133013 13 248 0.0 4.8 0.00 0.00 0.00 80 1017.3
20260510132510 13 62 0.0 0.0 0.00 0.00 0.00 83 1017.2
20260510132006 13 44 0.0 1.6 0.00 0.00 0.00 84 1017.3
20260510131504 13 192 3.2 6.4 0.00 0.00 0.00 82 1017.5
20260510131001 13 98 0.0 3.2 0.00 0.00 0.00 84 1017.2
20260510130457 13 55 3.2 4.8 0.00 0.00 0.00 84 1017.3
20260510125955 13 56 0.0 3.2 0.00 0.00 0.00 83 1017.3
20260510125451 13 80 1.6 1.6 0.00 0.00 0.00 83 1017.2
20260510124947 12 52 0.0 3.2 0.00 0.00 0.00 83 1017.3
20260510124444 12 95 0.0 1.6 0.00 0.00 0.00 84 1017.2
20260510123941 12 27 0.0 1.6 0.00 0.00 0.00 84 1017.4
20260510123436 12 68 4.8 4.8 0.00 0.00 0.00 84 1017.2
20260510122932 12 30 0.0 1.6 0.00 0.00 0.00 85 1017.3
20260510122432 11 22 0.0 0.0 0.00 0.00 0.00 85 1017.0
20260510121929 11 43 3.2 3.2 0.00 0.00 0.00 84 1017.1
20260510121427 11 33 0.0 0.0 0.00 0.00 0.00 85 1017.1
20260510120924 11 57 1.6 3.2 0.00 0.00 0.00 85 1016.8
20260510120421 11 45 1.6 1.6 0.00 0.00 0.00 86 1017.0
20260510115917 11 64 0.0 3.2 0.00 0.00 0.00 86 1016.8
20260510115414 10 66 0.0 0.0 0.00 0.00 0.00 85 1017.1
20260510114910 10 265 0.0 1.6 0.00 0.00 0.00 86 1017.2
20260510114407 10 83 0.0 3.2 0.00 0.00 0.00 87 1016.9
20260510113902 10 163 3.2 9.7 0.00 0.00 0.00 87 1017.0
20260510113358 10 21 0.0 3.2 0.00 0.00 0.00 89 1017.1
20260510112856 9 306 0.0 1.6 0.00 0.00 0.00 89 1017.0
20260510112352 9 130 0.0 4.8 0.00 0.00 0.00 88 1017.1
20260510111848 9 243 1.6 4.8 0.00 0.00 0.00 89 1017.1
20260510111346 8 173 4.8 9.7 0.00 0.00 0.00 88 1016.9
20260510110846 8 216 3.2 4.8 0.00 0.00 0.00 90 1016.9
20260510110343 8 260 4.8 4.8 0.00 0.00 0.00 91 1016.7
20260510105839 8 279 0.0 0.0 0.00 0.00 0.00 91 1016.5
20260510105339 8 102 1.6 3.2 0.00 0.00 0.00 92 1016.5
20260510104835 8 87 1.6 1.6 0.00 0.00 0.00 92 1016.4
20260510104332 8 96 3.2 3.2 0.00 0.00 0.00 92 1016.2
20260510103828 8 330 1.6 1.6 0.00 0.00 0.00 91 1016.3
20260510103325 8 114 0.0 3.2 0.00 0.00 0.00 91 1016.2
20260510102821 7 358 0.0 4.8 0.00 0.00 0.00 92 1016.2
20260510102317 7 314 4.8 4.8 0.00 0.00 0.00 92 1015.9
20260510101814 7 233 0.0 1.6 0.00 0.00 0.00 91 1015.9
20260510101312 7 269 1.6 3.2 0.00 0.00 0.00 92 1015.8
20260510100808 8 165 0.0 0.0 0.00 0.00 0.00 91 1015.7
20260510100306 7 106 1.6 4.8 0.00 0.00 0.00 92 1015.9
20260510095801 8 45 1.6 3.2 0.00 0.00 0.00 92 1015.8
20260510095257 7 50 0.0 3.2 0.00 0.00 0.00 92 1015.7
20260510094756 7 46 0.0 1.6 0.00 0.00 0.00 93 1015.6
20260510094251 7 85 0.0 3.2 0.00 0.00 0.00 94 1015.6
20260510093747 7 58 0.0 1.6 0.00 0.00 0.00 93 1015.6
20260510093245 7 225 3.2 3.2 0.00 0.00 0.00 93 1015.6
20260510092741 7 201 0.0 1.6 0.00 0.00 0.00 93 1015.5
20260510092237 7 46 3.2 3.2 0.00 0.00 0.00 92 1015.3
20260510091733 8 62 3.2 4.8 0.00 0.00 0.00 92 1015.3
20260510091230 8 49 0.0 3.2 0.00 0.00 0.00 92 1015.3
20260510090726 8 179 0.0 6.4 0.00 0.00 0.00 92 1015.3
20260510090224 7 109 4.8 4.8 0.00 0.00 0.00 92 1015.2
20260510085718 7 269 0.0 3.2 0.00 0.00 0.00 92 1015.2
20260510085213 7 98 3.2 4.8 0.00 0.00 0.00 92 1015.3
20260510084709 7 164 0.0 6.4 0.00 0.00 0.00 93 1015.3
20260510084207 7 199 0.0 6.4 0.00 0.00 0.00 93 1015.5
20260510083703 7 252 1.6 1.6 0.00 0.00 0.00 93 1015.4
20260510083201 7 109 4.8 4.8 0.00 0.00 0.00 92 1015.0
20260510082656 7 59 1.6 1.6 0.00 0.00 0.00 93 1015.2
20260510082152 7 40 4.8 4.8 0.00 0.00 0.00 93 1015.2
20260510081647 7 15 1.6 1.6 0.00 0.00 0.00 93 1015.1
20260510081143 7 81 3.2 3.2 0.00 0.00 0.00 93 1015.2
20260510080642 7 215 0.0 3.2 0.00 0.00 0.00 93 1015.1
20260510080140 7 98 1.6 3.2 0.00 0.00 0.00 92 1015.0
20260510075636 7 68 1.6 3.2 0.00 0.00 0.00 91 1015.2
20260510075134 7 128 0.0 1.6 0.00 0.00 0.00 91 1015.1
20260510074630 8 119 0.0 3.2 0.00 0.00 0.00 91 1014.8
20260510074126 8 355 0.0 1.6 0.00 0.00 0.00 91 1014.7
20260510073622 8 151 0.0 3.2 0.00 0.00 0.00 92 1015.0
20260510073119 7 187 1.6 6.4 0.00 0.00 0.00 92 1014.8
20260510072616 7 16 3.2 6.4 0.00 0.00 0.00 93 1015.0
20260510072112 7 350 0.0 3.2 0.00 0.00 0.00 94 1015.0
20260510071608 7 234 0.0 3.2 0.00 0.00 0.00 93 1015.0
20260510071107 7 42 0.0 1.6 0.00 0.00 0.00 92 1015.0
20260510070603 7 113 0.0 1.6 0.00 0.00 0.00 91 1014.8
20260510070100 7 54 3.2 4.8 0.00 0.00 0.00 92 1014.8
20260510065556 8 218 0.0 0.0 0.00 0.00 0.00 90 1014.7
20260510065052 8 49 3.2 4.8 0.00 0.00 0.00 90 1014.8
20260510064549 7 56 0.0 1.6 0.00 0.00 0.00 92 1014.8
20260510064045 7 55 3.2 3.2 0.00 0.00 0.00 91 1014.8
20260510063543 7 312 1.6 4.8 0.00 0.00 0.00 91 1014.7
20260510063040 7 38 1.6 1.6 0.00 0.00 0.00 90 1014.8
20260510062535 7 53 3.2 4.8 0.00 0.00 0.00 91 1015.0
20260510062031 7 55 3.2 4.8 0.00 0.00 0.00 91 1015.0
20260510061528 8 281 1.6 3.2 0.00 0.00 0.00 90 1015.1
20260510061024 7 72 0.0 3.2 0.00 0.00 0.00 90 1015.0
20260510060521 8 44 0.0 0.0 0.00 0.00 0.00 89 1014.8
20260510060017 8 130 0.0 3.2 0.00 0.00 0.00 89 1014.7
20260510055513 7 76 0.0 1.6 0.00 0.00 0.00 91 1014.8
20260510055011 7 79 4.8 4.8 0.00 0.00 0.00 91 1014.8
20260510054507 7 97 4.8 4.8 0.00 0.00 0.00 91 1015.1
20260510054002 7 216 0.0 1.6 0.00 0.00 0.00 90 1015.1
20260510053457 8 132 0.0 3.2 0.00 0.00 0.00 90 1015.3
20260510052953 7 250 1.6 4.8 0.00 0.00 0.00 90 1015.3
20260510052450 7 44 0.0 3.2 0.00 0.00 0.00 91 1015.2
20260510051946 7 49 0.0 1.6 0.00 0.00 0.00 92 1015.5
20260510051442 7 96 0.0 0.0 0.00 0.00 0.00 91 1015.4
20260510050938 7 96 0.0 1.6 0.00 0.00 0.00 91 1015.5
20260510050435 7 62 0.0 0.0 0.00 0.00 0.00 91 1015.6
20260510045933 7 62 0.0 0.0 0.00 0.00 0.00 91 1015.6
20260510045430 7 62 0.0 0.0 0.00 0.00 0.00 91 1015.5
20260510044926 7 60 0.0 0.0 0.00 0.00 0.00 91 1015.6
20260510044423 7 70 0.0 0.0 0.00 0.00 0.00 91 1015.4
20260510043920 7 96 0.0 0.0 0.00 0.00 0.00 90 1015.4
20260510043416 7 95 0.0 0.0 0.00 0.00 0.00 90 1015.3
20260510042914 7 119 0.0 0.0 0.00 0.00 0.00 89 1015.2
20260510042410 7 115 0.0 0.0 0.00 0.00 0.00 89 1015.2
20260510041906 7 84 0.0 0.0 0.00 0.00 0.00 90 1015.0
20260510041403 8 83 0.0 0.0 0.00 0.00 0.00 89 1014.8
20260510040901 8 82 0.0 1.6 0.00 0.00 0.00 88 1014.8
20260510040358 7 125 0.0 0.0 0.00 0.00 0.00 90 1015.0
20260510035853 7 103 0.0 0.0 0.00 0.00 0.00 90 1014.7
20260510035349 7 103 1.6 1.6 0.00 0.00 0.00 90 1015.3
20260510034844 7 104 0.0 0.0 0.00 0.00 0.00 89 1015.2
20260510034343 7 104 0.0 0.0 0.00 0.00 0.00 88 1015.1
20260510033839 8 114 0.0 0.0 0.00 0.00 0.00 88 1015.1
20260510033336 8 120 0.0 0.0 0.00 0.00 0.00 87 1015.1
20260510032832 8 123 1.6 1.6 0.00 0.00 0.00 87 1015.0
20260510032329 8 121 0.0 0.0 0.00 0.00 0.00 87 1014.8
20260510031825 8 129 0.0 0.0 0.00 0.00 0.00 87 1015.0
20260510031320 8 169 0.0 0.0 0.00 0.00 0.00 87 1015.1
20260510030815 8 87 0.0 1.6 0.00 0.00 0.00 86 1014.8
20260510030311 8 86 0.0 0.0 0.00 0.00 0.00 88 1014.8
20260510025809 8 131 0.0 0.0 0.00 0.00 0.00 87 1014.8
20260510025306 8 117 0.0 0.0 0.00 0.00 0.00 87 1014.8
20260510024803 8 145 0.0 0.0 0.00 0.00 0.00 86 1015.0
20260510024300 8 158 0.0 0.0 0.00 0.00 0.00 86 1015.0
20260510023755 8 81 0.0 0.0 0.00 0.00 0.00 85 1014.6
20260510023247 9 72 0.0 0.0 0.00 0.00 0.00 84 1014.7
20260510022744 9 108 0.0 3.2 0.00 0.00 0.00 84 1014.7
20260510022243 9 223 1.6 3.2 0.00 0.00 0.00 84 1014.6
20260510021742 9 131 0.0 0.0 0.00 0.00 0.00 83 1014.6
20260510021241 8 109 0.0 1.6 0.00 0.00 0.00 85 1014.6
20260510020737 9 81 0.0 0.0 0.00 0.00 0.00 85 1014.3
20260510020236 9 175 0.0 0.0 0.00 0.00 0.00 83 1014.3
20260510015733 9 106 0.0 0.0 0.00 0.00 0.00 83 1014.1
20260510015229 10 261 1.6 1.6 0.00 0.00 0.00 81 1014.2
20260510014724 10 95 0.0 0.0 0.00 0.00 0.00 82 1014.1
20260510014222 10 106 0.0 0.0 0.00 0.00 0.00 80 1013.9
20260510013717 9 116 0.0 0.0 0.00 0.00 0.00 83 1014.0
20260510013214 10 82 0.0 0.0 0.00 0.00 0.00 81 1013.7
20260510012713 10 92 0.0 0.0 0.00 0.00 0.00 80 1013.8
20260510012209 10 178 0.0 0.0 0.00 0.00 0.00 79 1013.6
20260510011704 11 112 0.0 0.0 0.00 0.00 0.00 78 1013.4
20260510011159 11 119 0.0 0.0 0.00 0.00 0.00 77 1013.5
20260510010656 11 58 0.0 0.0 0.00 0.00 0.00 77 1013.4
20260510010148 11 110 0.0 0.0 0.00 0.00 0.00 76 1013.4
20260510005644 11 271 0.0 0.0 0.00 0.00 0.00 76 1013.4
20260510005141 11 122 0.0 0.0 0.00 0.00 0.00 76 1013.2
20260510004639 11 125 0.0 0.0 0.00 0.00 0.00 75 1013.0
20260510004137 12 117 0.0 1.6 0.00 0.00 0.00 72 1012.8
20260510003634 12 204 0.0 1.6 0.00 0.00 0.00 72 1012.8
20260510003130 13 119 0.0 1.6 0.00 0.00 0.00 70 1012.7
20260510002629 13 93 0.0 1.6 0.00 0.00 0.00 68 1012.6
20260510002127 13 117 0.0 0.0 0.00 0.00 0.00 71 1012.6
20260510001623 13 145 0.0 0.0 0.00 0.00 0.00 68 1012.5
20260510001122 13 108 1.6 3.2 0.00 0.00 0.00 68 1012.3
20260510000622 14 141 0.0 0.0 0.00 0.00 0.00 68 1012.4
20260510000120 14 112 0.0 0.0 0.00 0.00 0.00 65 1012.3
20260509235616 15 137 0.0 0.0 0.00 0.00 0.00 62 1012.3
20260509235113 15 116 0.0 1.6 0.00 0.00 0.00 63 1012.3